This is the latest recevied weather packets stored in our database for station/object N3SBK. If no packets are shown the sender has not sent any weather packets the latest 10 day(s).
| Time | Temp. | Humidity | Pressure | Rain* | Wind** | Luminosity | Snow |
|---|---|---|---|---|---|---|---|
| 1777729837 | 5° C | 79% | 1005.9 hPa | 0 mm | - | 155 W/m² | - |
| 1777729533 | 5° C | 79% | 1005.9 hPa | 0 mm | - | 88 W/m² | - |
| 1777729230 | 5° C | 79% | 1005.9 hPa | 0 mm | - | 105 W/m² | - |
| 1777728927 | 5° C | 80% | 1005.9 hPa | 0 mm | - | 117 W/m² | - |
| 1777728624 | 4.44° C | 80% | 1005.9 hPa | 0 mm | - | 91 W/m² | - |
| 1777728321 | 4.44° C | 78% | 1006.2 hPa | 0 mm | - | 100 W/m² | - |
| 1777728018 | 4.44° C | 81% | 1006 hPa | 0 mm | - | 120 W/m² | - |
| 1777727715 | 4.44° C | 83% | 1006 hPa | 0 mm | - | 111 W/m² | - |
| 1777727411 | 4.44° C | 81% | 1006.1 hPa | 0 mm | - | 94 W/m² | - |
| 1777727109 | 4.44° C | 83% | 1006.2 hPa | 0 mm | - | 126 W/m² | - |
| 1777726807 | 4.44° C | 83% | 1006.2 hPa | 0 mm | - | 126 W/m² | - |
| 1777726503 | 4.44° C | 84% | 1006.2 hPa | 0 mm | - | 87 W/m² | - |
| 1777726200 | 3.89° C | 86% | 1006.2 hPa | 0 mm | - | 86 W/m² | - |
| 1777725897 | 3.89° C | 84% | 1006.1 hPa | 0 mm | - | 105 W/m² | - |
| 1777725594 | 3.89° C | 85% | 1006.3 hPa | 0 mm | - | 64 W/m² | - |
| 1777725292 | 3.89° C | 85% | 1006.4 hPa | 0 mm | - | 81 W/m² | - |
| 1777724989 | 3.89° C | 85% | 1006.3 hPa | 0 mm | - | 52 W/m² | - |
| 1777724684 | 3.89° C | 86% | 1006.3 hPa | 0 mm | - | 53 W/m² | - |
| 1777724383 | 3.89° C | 86% | 1006.4 hPa | 0 mm | - | 78 W/m² | - |
| 1777724080 | 3.33° C | 88% | 1006.2 hPa | 0 mm | - | 56 W/m² | - |
| 1777723777 | 3.33° C | 88% | 1006.4 hPa | 0 mm | - | 57 W/m² | - |
| 1777723473 | 3.33° C | 89% | 1006.5 hPa | 0 mm | - | 66 W/m² | - |
| 1777723171 | 2.78° C | 90% | 1006.5 hPa | 0 mm | - | 73 W/m² | - |
| 1777722868 | 2.78° C | 92% | 1006.5 hPa | 0 mm | - | 71 W/m² | - |
| 1777722564 | 2.78° C | 93% | 1006.7 hPa | 0 mm | - | 59 W/m² | - |
* Rain latest hour (hover to see other rain measurements)
** Current wind speed in m/s (hover to see current wind gust speed)